| time (UTC) | temp F | wind direction | speed MPH | gust MPH | rain 1hr in | rain 24hr in | rain mn in | humidity % | barometer mb |
| 20260510013028 | 65 | 229 | 9.0 | 15.0 | 0.00 | 0.00 | 0.00 | 86 | 1013.2 |
| 20260510011535 | 65 | 225 | 8.0 | 14.0 | 0.00 | 0.00 | 0.00 | 86 | 1013.0 |
| 20260510010035 | 65 | 218 | 9.0 | 14.0 | 0.00 | 0.00 | 0.00 | 85 | 1013.0 |
| 20260510004527 | 66 | 248 | 9.0 | 17.0 | 0.00 | 0.00 | 0.00 | 85 | 1012.9 |
| 20260510003027 | 66 | 277 | 10.0 | 15.0 | 0.00 | 0.00 | 0.00 | 84 | 1012.9 |
| 20260510001527 | 67 | 246 | 9.0 | 15.0 | 0.00 | 0.00 | 0.00 | 83 | 1012.8 |
| 20260510000030 | 67 | 215 | 5.0 | 12.0 | 0.00 | 0.00 | 0.00 | 83 | 1012.5 |
| 20260509234533 | 68 | 225 | 3.0 | 9.0 | 0.00 | 0.00 | 0.00 | 82 | 1012.2 |
| 20260509233029 | 68 | 231 | 7.0 | 13.0 | 0.00 | 0.00 | 0.00 | 81 | 1012.0 |
| 20260509231532 | 68 | 240 | 5.0 | 14.0 | 0.00 | 0.00 | 0.00 | 80 | 1011.8 |
| 20260509230030 | 69 | 238 | 7.0 | 15.0 | 0.00 | 0.00 | 0.00 | 79 | 1011.7 |
| 20260509224530 | 69 | 223 | 8.0 | 16.0 | 0.00 | 0.00 | 0.00 | 79 | 1011.7 |
| 20260509223028 | 69 | 227 | 10.0 | 18.0 | 0.00 | 0.00 | 0.00 | 78 | 1011.6 |
| 20260509221541 | 69 | 265 | 9.0 | 17.0 | 0.00 | 0.00 | 0.00 | 77 | 1011.7 |
| 20260509220030 | 70 | 277 | 8.0 | 16.0 | 0.00 | 0.00 | 0.00 | 76 | 1011.5 |
| 20260509214528 | 70 | 260 | 12.0 | 20.0 | 0.00 | 0.00 | 0.00 | 75 | 1011.5 |
| 20260509213029 | 71 | 252 | 9.0 | 16.0 | 0.00 | 0.00 | 0.00 | 75 | 1011.3 |
| 20260509211531 | 70 | 229 | 12.0 | 18.0 | 0.00 | 0.00 | 0.00 | 75 | 1011.4 |
| 20260509210028 | 70 | 238 | 11.0 | 21.0 | 0.00 | 0.00 | 0.00 | 75 | 1011.4 |
| 20260509204532 | 70 | 257 | 9.0 | 17.0 | 0.00 | 0.00 | 0.00 | 77 | 1011.5 |
| 20260509203030 | 70 | 278 | 6.0 | 13.0 | 0.00 | 0.00 | 0.00 | 75 | 1011.4 |
| 20260509201527 | 70 | 236 | 10.0 | 17.0 | 0.00 | 0.00 | 0.00 | 74 | 1011.6 |
| 20260509200026 | 70 | 198 | 10.0 | 17.0 | 0.00 | 0.00 | 0.00 | 74 | 1011.7 |
| 20260509194528 | 70 | 244 | 8.0 | 17.0 | 0.00 | 0.00 | 0.00 | 75 | 1011.9 |
| 20260509193030 | 70 | 201 | 7.0 | 16.0 | 0.00 | 0.00 | 0.00 | 75 | 1011.8 |
| 20260509191530 | 70 | 233 | 10.0 | 16.0 | 0.00 | 0.00 | 0.00 | 74 | 1011.9 |
| 20260509190042 | 69 | 252 | 10.0 | 16.0 | 0.00 | 0.00 | 0.00 | 76 | 1012.1 |
| 20260509184534 | 69 | 258 | 9.0 | 13.0 | 0.00 | 0.00 | 0.00 | 77 | 1012.1 |
| 20260509183038 | 68 | 296 | 8.0 | 17.0 | 0.00 | 0.00 | 0.00 | 78 | 1011.9 |
| 20260509181528 | 67 | 81 | 10.0 | 17.0 | 0.00 | 0.00 | 0.00 | 79 | 1012.1 |
| 20260509180028 | 67 | 78 | 8.0 | 17.0 | 0.00 | 0.00 | 0.00 | 79 | 1012.1 |
| 20260509174527 | 67 | 256 | 9.0 | 17.0 | 0.00 | 0.00 | 0.00 | 80 | 1012.3 |
| 20260509173031 | 66 | 242 | 8.0 | 14.0 | 0.00 | 0.00 | 0.00 | 83 | 1012.4 |
| 20260509171533 | 65 | 280 | 11.0 | 18.0 | 0.00 | 0.00 | 0.00 | 84 | 1012.7 |
| 20260509170037 | 64 | 252 | 11.0 | 17.0 | 0.00 | 0.00 | 0.00 | 85 | 1012.8 |
| 20260509164530 | 64 | 269 | 9.0 | 18.0 | 0.00 | 0.00 | 0.00 | 86 | 1013.2 |
| 20260509163029 | 64 | 292 | 8.0 | 12.0 | 0.00 | 0.00 | 0.00 | 86 | 1013.3 |
| 20260509161528 | 63 | 220 | 5.0 | 9.0 | 0.00 | 0.00 | 0.00 | 86 | 1013.2 |
| 20260509160028 | 63 | 219 | 3.0 | 10.0 | 0.00 | 0.00 | 0.00 | 86 | 1013.4 |
| 20260509154528 | 62 | 237 | 3.0 | 10.0 | 0.00 | 0.00 | 0.00 | 87 | 1013.6 |
| 20260509153032 | 62 | 259 | 3.0 | 8.0 | 0.00 | 0.00 | 0.00 | 87 | 1013.6 |
| 20260509151529 | 61 | 231 | 5.0 | 11.0 | 0.00 | 0.00 | 0.00 | 86 | 1013.8 |
| 20260509150031 | 61 | 267 | 4.0 | 8.0 | 0.00 | 0.00 | 0.00 | 86 | 1013.5 |
| 20260509144526 | 61 | 276 | 3.0 | 6.0 | 0.00 | 0.00 | 0.00 | 85 | 1013.4 |
| 20260509143026 | 61 | 269 | 4.0 | 8.0 | 0.00 | 0.00 | 0.00 | 85 | 1013.4 |
| 20260509141535 | 61 | 238 | 2.0 | 5.0 | 0.00 | 0.00 | 0.00 | 85 | 1013.2 |
| 20260509140035 | 61 | 240 | 3.0 | 8.0 | 0.00 | 0.00 | 0.00 | 86 | 1012.8 |
| 20260509134530 | 61 | 235 | 4.0 | 8.0 | 0.00 | 0.00 | 0.00 | 86 | 1013.0 |
| 20260509133033 | 60 | 245 | 2.0 | 5.0 | 0.00 | 0.00 | 0.00 | 89 | 1012.9 |
| 20260509131538 | 59 | 0 | 0.0 | 4.0 | 0.00 | 0.00 | 0.00 | 91 | 1012.6 |
| 20260509130042 | 58 | 0 | 0.0 | 2.0 | 0.00 | 0.00 | 0.00 | 91 | 1013.1 |
| 20260509124535 | 57 | 0 | 0.0 | 1.0 | 0.00 | 0.00 | 0.00 | 90 | 1013.1 |
| 20260509123030 | 57 | 0 | 1.0 | 4.0 | 0.00 | 0.00 | 0.00 | 89 | 1013.3 |
| 20260509121531 | 57 | 242 | 2.0 | 4.0 | 0.00 | 0.00 | 0.00 | 89 | 1013.6 |
| 20260509120026 | 57 | 242 | 2.0 | 3.0 | 0.00 | 0.00 | 0.00 | 88 | 1013.4 |
| 20260509114527 | 58 | 242 | 1.0 | 4.0 | 0.00 | 0.00 | 0.00 | 88 | 1013.3 |
| 20260509113028 | 58 | 241 | 2.0 | 4.0 | 0.00 | 0.00 | 0.00 | 88 | 1013.3 |
| 20260509084534 | 57 | 254 | 3.0 | 4.0 | 0.00 | 0.00 | 0.00 | 87 | 1012.9 |
| 20260509083026 | 58 | 0 | 0.0 | 0.0 | 0.00 | 0.00 | 0.00 | 87 | 1012.8 |
| 20260509081539 | 58 | 0 | 0.0 | 0.0 | 0.00 | 0.00 | 0.00 | 87 | 1012.7 |
| 20260509080026 | 58 | 0 | 0.0 | 0.0 | 0.00 | 0.00 | 0.00 | 88 | 1012.4 |
| 20260509074528 | 58 | 0 | 0.0 | 0.0 | 0.00 | 0.00 | 0.00 | 88 | 1012.7 |
| 20260509073029 | 58 | 0 | 0.0 | 0.0 | 0.00 | 0.00 | 0.00 | 87 | 1012.7 |
| 20260509071528 | 58 | 0 | 0.0 | 0.0 | 0.00 | 0.00 | 0.00 | 85 | 1013.1 |
| 20260509070026 | 59 | 0 | 0.0 | 0.0 | 0.00 | 0.00 | 0.00 | 84 | 1013.1 |
| 20260509064528 | 60 | 0 | 0.0 | 0.0 | 0.00 | 0.00 | 0.00 | 83 | 1013.7 |
| 20260509063028 | 60 | 0 | 0.0 | 3.0 | 0.00 | 0.00 | 0.00 | 82 | 1014.0 |
| 20260509061529 | 60 | 252 | 3.0 | 4.0 | 0.00 | 0.00 | 0.00 | 82 | 1014.2 |
| 20260509060027 | 60 | 252 | 3.0 | 4.0 | 0.00 | 0.00 | 0.00 | 82 | 1014.2 |
| 20260509054539 | 60 | 248 | 2.0 | 4.0 | 0.00 | 0.00 | 0.00 | 82 | 1014.2 |
| 20260509053100 | 60 | 246 | 3.0 | 5.0 | 0.00 | 0.00 | 0.00 | 82 | 1014.2 |
| 20260509051533 | 61 | 249 | 3.0 | 4.0 | 0.00 | 0.00 | 0.00 | 82 | 1014.5 |
| 20260509050039 | 61 | 269 | 3.0 | 4.0 | 0.00 | 0.00 | 0.00 | 82 | 1014.7 |
| 20260509044529 | 61 | 268 | 4.0 | 6.0 | 0.00 | 0.00 | 0.00 | 82 | 1014.7 |
| 20260509043030 | 61 | 245 | 3.0 | 4.0 | 0.00 | 0.00 | 0.00 | 82 | 1014.7 |
| 20260509041530 | 61 | 225 | 4.0 | 6.0 | 0.00 | 0.00 | 0.00 | 81 | 1015.2 |
| 20260509040030 | 61 | 231 | 5.0 | 8.0 | 0.00 | 0.00 | 0.00 | 81 | 1015.2 |
| 20260509034529 | 61 | 236 | 5.0 | 8.0 | 0.00 | 0.00 | 0.00 | 80 | 1015.5 |
| 20260509033026 | 61 | 225 | 5.0 | 8.0 | 0.00 | 0.00 | 0.00 | 78 | 1015.6 |
| 20260509031531 | 62 | 217 | 6.0 | 9.0 | 0.00 | 0.00 | 0.00 | 76 | 1015.8 |
| 20260509030035 | 62 | 200 | 6.0 | 8.0 | 0.00 | 0.00 | 0.00 | 74 | 1015.7 |
| 20260509024532 | 62 | 192 | 4.0 | 9.0 | 0.00 | 0.00 | 0.00 | 73 | 1015.4 |
| 20260509023035 | 63 | 194 | 5.0 | 7.0 | 0.00 | 0.00 | 0.00 | 73 | 1015.4 |
| 20260509021529 | 62 | 188 | 5.0 | 7.0 | 0.00 | 0.00 | 0.00 | 73 | 1015.4 |
| 20260509020028 | 63 | 193 | 5.0 | 9.0 | 0.00 | 0.00 | 0.00 | 73 | 1015.4 |
| 20260509014536 | 63 | 190 | 4.0 | 8.0 | 0.00 | 0.00 | 0.00 | 74 | 1015.3 |